Starlink 4208

operational
NORAD ID: 52844 Int'l Des: 2022-062 Owner: SPXS Country: US Constellation: starlink
LEOCIRCULAR

Starlink 4208について

説明を読み込み中...

リアルタイム位置

3D地球を読み込み中...

次回通過

高度履歴

Altitude vs Time

uPlot chart will show altitude changes over time

軌道要素

1 52844U 22062Q 26034.22431222 .00001194 00000-0 93129-4 0 9991
2 52844 53.2163 188.8409 0001279 94.0095 266.1044 15.08830677200582
Epoch: Feb 3, 2026 • Age: 8 hours

現在のステータス

高度 557.2 km
速度 7.58 km/s
衛星直下点 -48.25°S, 161.8°E
打ち上げ日 Jun 17, 2022
運用期間 3.6 years
タイプ internet

技術仕様

分類 Payload
質量 297.00 kg
乾燥質量 275.00 kg
総質量 297.00 kg
長さ 0.20 m
直径 2.80 m
スパン 9.00 m
形状 Box + pan
製造者 SPXS
バスタイプ Starlink
フェーズステータス In Orbit
所有者/国 SPXS/US

大規模コンステレーション

Loading constellations...